Regional Weather Roundup
Issued by NWS

Home | Current Version | Previous Version | Text Only | Print | Product List | Glossary Off
Versions: 1 2 3 4 5 6 7 8 9 10 11 12 13 14 15 16 17 18 19 20 21 22 23 24 25 26 27 28 29 30 31 32 33 34 35 36 37 38 39 40 41 42 43 44 45 46 47 48 49 50

000
ASUS44 KMEG 011100
RWRTN
TENNESSEE HOURLY STATE WEATHER ROUNDUP
NATIONAL WEATHER SERVICE MEMPHIS TN
500 AM CST SUN MAR 01 2015

TNZ002-004-019-021-049-052-054-088>092-011200-
WEST TENNESSEE

CITY           SKY/WX    TMP DP  RH WIND       PRES   REMARKS
MEMPHIS INTL   CLOUDY    38  26  62 N3        30.33R
NWS MEMPHIS      N/A     36 N/A N/A MISG        N/A
JACKSON        CLOUDY    39  26  59 E3        30.33S
DYERSBURG      CLOUDY    34  18  51 E5        30.36R WCI  30
UNION CITY     CLOUDY    32  28  86 N3        30.35R
PARIS          CLOUDY    34  23  64 E5        30.34S WCI  30
LEXINGTON      CLOUDY    37  27  65 E3        30.33S
SAVANNAH       CLOUDY    43  36  75 CALM      30.34R
$$

TNZ008-025-027-028-033-062-065-066-011200-
NORTH MIDDLE TENNESSEE

CITY           SKY/WX    TMP DP  RH WIND       PRES   REMARKS
NASHVILLE      CLOUDY    42  32  67 SE3       30.37S
CLARKSVILLE    CLOUDY    36  27  69 NE3       30.36S
COOKEVILLE     MOCLDY    43  34  70 S3        30.38R
CROSSVILLE     CLOUDY    42  34  73 S12G17    30.38R
$$

TNZ061-075-076-078-094-096-097-011200-
SOUTH MIDDLE TENNESSEE

CITY           SKY/WX    TMP DP  RH WIND       PRES   REMARKS
FAYETTEVILLE   CLOUDY    45  34  65 S7          N/A
TULLAHOMA      CLOUDY    43  32  65 CALM      30.39R
WINCHESTER     CLOUDY    45  36  70 SE6       30.39R
COLUMBIA         N/A     48  41  76 S5        30.34S
SHELBYVILLE    CLOUDY    46  36  66 S7        30.38S
$$

TNZ017-018-042-046-047-011200-
NORTHEAST TENNESSEE

CITY           SKY/WX    TMP DP  RH WIND       PRES   REMARKS
TRI CITIES     MOCLDY    34  26  72 CALM      30.43R
ELIZABETHTON   PTSUNNY   36  28  75 E5        30.42S WCI  32
$$

TNZ012-013-036-069-073-074-011200-
CENTRAL EAST TENNESSEE

CITY           SKY/WX    TMP DP  RH WIND       PRES   REMARKS
KNOXVILLE      MOCLDY    35  28  75 NE3       30.43R
OAK RIDGE      CLOUDY    42  29  59 CALM      30.44R
GATLINBURG     PTSUNNY   27  25  93 CALM      30.44R
$$

TNZ083-085-099-011200-
SOUTHEAST TENNESSEE

CITY           SKY/WX    TMP DP  RH WIND       PRES   REMARKS
CHATTANOOGA    CLOUDY    43  31  62 S9        30.43F
$$

SKY/WX REPORTED AS FAIR MEANS FEW OR NO CLOUDS BELOW
12 THOUSAND FEET.



USA.gov is the U.S. government's official web portal to all federal, state and local government web resources and services.